www.pogodaiklimat.ru

Погода и климат >> Архив погоды >> Индонезия >> Понтианак


ПОГОДА в Понтианаке

  • Прогноз погоды в Понтианаке
  • Монитор погоды в Понтианаке

АРХИВ ПОГОДЫ в Понтианаке

Время (UTC), дата Ветер
(напр.,м/с)
 
Видим.   Явления Облачность Т
(С)
Тd
(С)
f
(%)
Тe
(С)
Тes
(С)
Комфортность P
(гПа)
Po
(гПа)
Тmin
(С)
Tmax
(С)
R
(мм)
R24
(мм)
S
(см)
06 17.07 ЮВ 3 10 км 9/6 400 м
[Cu hum Ac trans Ci fib]
+31.6 +20.2 51 +38 +42 очень
душно
1007.9 1007.2
09 17.07 ЮВ 4 10 км 8/5 400 м
[Cu hum Ac trans Ci fib]
+31.7 +19.5 48 +37 +38 очень
душно
1006.2 1005.5
12 17.07 Ю 3 5000 м дым 6/5 400 м
[Sc diur, vesp Ac trans Ci fib]
+27.5 +22.1 72 +36 +36 очень
душно
1007.3 1006.6 +32.2
15 17.07 штиль 0 6000 м 6/5 400 м
[Cu hum Ac trans Ci fib]
+24.9 +23.0 89 +33 +33 очень
душно
1009.3 1008.6
18 17.07 Ю 2 5000 м дым 6/4 400 м
[Cu hum Ac trans Ci fib]
+24.3 +22.7 91 +32 +32 очень
душно
1009.0 1008.3
21 17.07 Ю 2 6000 м 6/4 400 м
[Cu hum Ac trans Ci fib]
+23.5 +22.5 94 +31 +31 очень
душно
1008.5 1007.8
00 18.07 ЮВ 4 4000 м дым 6/3 400 м
[Cu hum Ac trans Ci fib]
+23.6 +23.5 99 +32 +33 очень
душно
1009.2 1008.5 +23.2
03 18.07 ЮВ 4 10 км 10/4 400 м
[Cu hum Ac trans Ci fib]
+29.1 +22.2 66 +38 +41 очень
душно
1009.0 1008.3
06 18.07 штиль 0 10 км 8/5 360 м
[Cu hum Ac trans Ci fib]
+32.0 +20.4 50 +39 +47 очень
душно
1007.1 1006.4
09 18.07 ЮВ 3 10 км 6/4 360 м
[Cu hum Ac trans Ci fib]
+32.3 +20.8 51 +40 +41 очень
душно
1005.6 1004.9
12 18.07 штиль 0 6000 м 6/3 400 м
[Cu hum Ac trans Ci fib]
+29.2 +21.2 62 +37 +37 очень
душно
1007.1 1006.4 +32.8
15 18.07 штиль 0 3000 м дым 6/3 400 м
[Cu hum Ac trans Ci fib]
+25.2 +22.7 86 +33 +33 очень
душно
1009.0 1008.3
18 18.07 штиль 0 1500 м дым 6/3 400 м
[Cu hum Ac trans Ci fib]
+22.7 +21.3 92 +30 +30 очень
душно
1008.4 1007.7
21 18.07 штиль 0 2500 м дым 6/3 360 м
[Cu hum Ac trans Ci fib]
+22.6 +22.0 96 +30 +30 очень
душно
1008.0 1007.3
00 19.07 В 2 400 м туман на расстоянии ?/? +24.8 +24.4 98 +35 +35 очень
душно
1008.9 1008.2 +21.6
03 19.07 СВ 2 6000 м в посл. час дождь {метель} 9/9 330 м
[]
+28.1 +24.2 79 +39 +41 очень
душно
1009.4 1008.7
06 19.07 штиль 0 10 км {туман} 9/5 330 м
[Cu hum Ac trans Ci fib]
+32.5 +23.5 59 +43 +50 опасность
перегрева
1007.6 1006.9
09 19.07 З 2 10 км 9/4 360 м
[Cu hum Ac trans Ci fib]
+32.7 +22.3 54 +42 +43 опасность
перегрева
1006.4 1005.7
12 19.07 ЮЗ 2 6000 м 9/4 360 м
[Cu hum Ac trans Ci fib]
+27.8 +24.8 84 +40 +40 очень
душно
1007.8 1007.1 +33.3
15 19.07 штиль 0 4000 м дым 9/4 360 м
[Cu hum Ac trans Ci fib]
+25.8 +24.7 94 +37 +37 очень
душно
1009.3 1008.6
18 19.07 штиль 0 2500 м дым 9/4 360 м
[Cu hum Ac trans Ci fib]
+24.6 +23.4 93 +33 +33 очень
душно
1009.3 1008.6
21 19.07 штиль 0 3000 м дым 9/5 360 м
[Cu hum Ac trans Ci fib]
+25.4 +24.5 95 +36 +36 очень
душно
1008.9 1008.2
00 20.07 штиль 0 3000 м дым 9/6 300 м
[Cu hum Ac As]
+25.6 +24.9 96 +36 +37 очень
душно
1010.3 1009.6 +24.4
03 20.07 ЮВ 2 10 км 9/6 330 м
[Cu hum Ac trans Ci fib]
+29.8 +24.4 73 +42 +46 опасность
перегрева
1010.1 1009.4
06 20.07 СВ 2 10 км 9/6 330 м
[Cu hum Ac trans Ci fib]
+33.5 +24.3 59 +46 +51 опасность
перегрева
1007.2 1006.5
09 20.07 ЮЗ 4 4000 м дым 9/6 360 м
[Cu med, cong Ac trans Ci fib]
+29.7 +25.6 79 +44 +45 опасность
перегрева
1006.0 1005.3
12 20.07 Ю 2 6000 м осадки на расстоянии 9/6 360 м
[Cu med, cong Ac trans Ci fib]
+28.2 +26.0 88 +42 +42 опасность
перегрева
1007.4 1006.7 +34.2
15 20.07 СЗ 2 3000 м дождь 9/6 330 м
[Cb cap Ac trans Ci fib]
+26.9 +25.8 94 +40 +40 очень
душно
1009.1 1008.4 0.8
18 20.07 ЮВ 3 4000 м гроза без осадков 9/6 330 м
[Cb cap Ac trans Ci fib]
+26.6 +25.8 95 +39 +39 очень
душно
1008.1 1007.4 4
21 20.07 штиль 0 4000 м слаб. ливневой дождь, в посл. час гроза 9/6 330 м
[Cb cap Ac trans Ci fib]
+25.8 +24.9 95 +37 +37 очень
душно
1008.0 1007.3 3
00 21.07 СВ 2 4000 м слаб. дождь {гроза} 10/6 300 м
[Frnb Ac As]
+25.3 +24.9 98 +36 +36 очень
душно
1009.8 1009.1 +24.9 4
03 21.07 ЮВ 2 10 км {дождь} 10/8 300 м
[Frnb Ac As]
+28.0 +24.9 83 +40 +41 очень
душно
1010.4 1009.7 0.6
06 21.07 С 4 10 км в посл. час дождь 9/8 240 м
[Frnb Ac As]
+26.8 +24.5 87 +38 +39 очень
душно
1009.1 1008.4 0.0
09 21.07 штиль 0 10 км 9/5 360 м
[Cu hum Ac As Ci fib]
+27.3 +23.2 78 +37 +38 очень
душно
1008.2 1007.5
12 21.07 Ю 2 6000 м 10/5 360 м
[Cu hum Ac As Ci fib]
+25.7 +24.3 92 +36 +36 очень
душно
1009.5 1008.8 +28.3
15 21.07 штиль 0 6000 м 9/5 360 м
[Cu hum Ac trans Ci fib]
+24.8 +23.6 93 +34 +34 очень
душно
1010.6 1009.9
18 21.07 штиль 0 6000 м 9/5 360 м
[Cu hum Ac trans Ci fib]
+24.8 +23.9 95 +34 +34 очень
душно
1010.3 1009.6
21 21.07 штиль 0 2000 м дым 8/5 360 м
[Cu hum Ac trans Ci fib]
+23.8 +23.2 96 +32 +32 очень
душно
1009.3 1008.6
00 22.07 штиль 0 4000 м дымка 10/6 90 м
[Cu hum Ac As]
+24.1 +23.5 96 +32 +33 очень
душно
1010.5 1009.8 +23.8
03 22.07 штиль 0 10 км {дождь} 9/6 330 м
[Cu hum Ac As Ci fib]
+27.2 +24.8 87 +39 +44 очень
душно
1010.7 1010.0 0.0
06 22.07 штиль 0 10 км {дождь} 9/6 360 м
[Cu hum Ac trans Ci fib]
+29.6 +24.0 72 +41 +47 опасность
перегрева
1008.6 1007.9 0.0
09 22.07 З 2 10 км в посл. час гроза {дождь} 9/4 300 м
[Cb cap Ac As Ci fib]
+24.2 +22.6 91 +32 +33 очень
душно
1007.9 1007.2 5
12 22.07 ЮЗ 3 6000 м слаб. дождь {гроза} 9/6 270 м
[Cu hum Ac As]
+23.4 +22.8 96 +33 +33 очень
душно
1010.2 1009.5 +30.8 5
15 22.07 Ю 2 6000 м {дождь} 9/5 360 м
[Cu hum Ac As]
+23.1 +22.4 96 +32 +32 очень
душно
1011.7 1011.0 1
21 22.07 штиль 0 6000 м 9/5 360 м
[Cu hum Ac As]
+23.3 +22.6 96 +32 +32 очень
душно
1010.2 1009.5
00 23.07 штиль 0 6000 м 9/3 360 м
[Cu hum Ac trans]
+23.1 +22.4 96 +32 +33 очень
душно
1010.9 1010.2 +23.0 11
03 23.07 ЮВ 3 10 км 9/6 360 м
[Cu hum Ac trans]
+26.9 +23.7 83 +37 +40 очень
душно
1011.4 1010.7
06 23.07 штиль 0 10 км 9/6 400 м
[Cu hum Ac trans Ci fib]
+30.2 +23.0 65 +40 +46 очень
душно
1008.7 1008.0
09 23.07 ЮЗ 3 10 км 8/5 360 м
[Cu hum Ac trans Ci fib]
+31.0 +23.9 66 +43 +44 опасность
перегрева
1007.3 1006.6
12 23.07 З 2 6000 м в посл. час гроза 9/6 300 м
[Cb cap Ac trans Ci fib]
+27.0 +22.9 78 +36 +36 очень
душно
1009.5 1008.8 +31.8
15 23.07 штиль 0 6000 м {дождь} 9/5 360 м
[Cu hum Ac As Ci fib]
+25.8 +24.2 91 +36 +36 очень
душно
1011.3 1010.6 0.0
18 23.07 штиль 0 6000 м {дождь} 9/4 360 м
[Cu hum Ac trans Ci fib]
+25.1 +24.1 94 +35 +35 очень
душно
1010.6 1009.9 0.0
21 23.07 Ю 2 6000 м 9/4 360 м
[Cu hum Ac trans Ci fib]
+25.3 +23.7 91 +34 +34 очень
душно
1010.5 1009.8
00 24.07 ЮВ 2 6000 м {гроза, дождь} 9/3 360 м
[Cu hum Ac trans Ci fib]
+25.1 +23.4 90 +34 +35 очень
душно
1012.0 1011.3 +23.1 0.0
03 24.07 ЮВ 5 10 км 8/4 360 м
[Cu hum Ac trans Ci fib]
+29.1 +22.9 69 +39 +42 очень
душно
1012.3 1011.6

 

Местоположение метеостанции Понтианак (Индонезия): широта -0.15 долгота 109.40 высота над уровнем моря 3 м.

В архиве по умолчанию представлена погода в Понтианаке за последнюю неделю. Архивные данные за месяц целиком и за предыдущие месяцы, начиная с января 2011 года, Вы можете получить, выбрав интересующий диапазон дат из раскрывающегося списка и нажав кнопку "Ввод!".


*Определитесь, кто Вы:
робот инопланетянин человек

Внимание! Время в таблицах - всемирное. Для получения местного времени необходимо прибавить поправку, которая равна 7 ч.

Смотрите также архив погоды в соседних городах и на ближайших метеорологических станциях:

Погода в Кетапанге (Индонезия) (199 км)
Погода в Кучинге (Малайзия) (209 км)
Погода в Парохе (Индонезия) (214 км)
Погода в Синтанге (Индонезия) (239 км)
Погода в Нангапинохе (Индонезия) (266 км)
Погода в Танджунгпандане (Индонезия) (342 км)
Погода в Пангкалан-Буне (Индонезия) (382 км)
Погода в Сибу (Малайзия) (386 км)
Погода на Путусиббау (Индонезия) (409 км)
Погода в Панкалпинанге (Индонезия) (427 км)

Пояснения к столбцам:

Ветер - указаны скорость ветра в м/с - средняя за 10 мин, порывы в срок и между сроками (в фигурных скобках) и направление, откуда дует ветер: С - северный, СВ - северо-восточный, В - восточный, ЮВ - юго-восточный, Ю - южный, ЮЗ - юго-западный, З - западный, СЗ - северо-западный.
Видимость - горизонтальная дальность видимости в метрах или километрах. При видимости от 1 до 10 км при отсутствии осадков обычно наблюдается дымка, при ухудшении видимости до 1 км и менее - туман. В сухую погоду видимость может ухудшаться дымом, пылью или мглою.
Явления - указаны атмосферные явления, наблюдавшиеся в срок или в последний час перед сроком; фигурными скобками обозначены явления, наблюдавшиеся между сроками (за 1-3 часа до срока); квадратными скобками обозначены град или гололедные отложения с указанием их диаметра в мм.
Облачность - указаны через наклонную черту общая и нижняя облачность в баллах и высота нижней границы облаков в метрах; квадратными скобками обозначены формы облаков: Ci - перистые, Cs - перисто-слоистые, Cc - перисто-кучевые, Ac - высококучевые, As - высокослоистые, Sc - слоисто-кучевые, Ns - слоисто-дождевые, Cu - кучевые, Cb - кучево-дождевые. Подробнее классификацию облаков см. в Атласе облаков (PDF).
T - Температура воздуха - температура, измеренная на высоте 2 м над землей.
Td - Температура точки росы - температура, при понижении до которой содержащийся в воздухе водяной пар достигнет насыщения.
f - Относительная влажность воздуха - влажноcть воздуха, измеренная на высоте 2 м над землей.
Te - Эффективная температура - температура, которую ощущает одетый по сезону человек в тени. Характеристика душности погоды. При расчете учитывается влияние влажности воздуха и скорости ветра на теплоощущения человека.
Tes - Эффективная температура на солнце - температура, которую ощущает человек, с поправкой на солнечный нагрев. Характеристика знойности погоды. Зависит от высоты солнца над горизонтом, облачности и скорости ветра. Ночью, в пасмурную погоду, а также при ветре 12 м/с и более поправка равна нулю.
P - Атмосферное давление - приведенное к уровню моря атмосферное давление.
Po - Атмосферное давление - измеренное на уровне метеостанции атмосферное давление.
Tmin - Минимальная температура - минимум температуры воздуха на высоте 2 м над землей.
Tmax - Максимальная температура - максимум температуры воздуха на высоте 2 м над землей.
R - Количество осадков - Количество выпавших осадков за период времени, мм. При наведении курсора мыши на число - период времени, за который выпало указанное количество осадков.
R24 - Количество осадков - Количество выпавших осадков за 24 часа, мм.
S - Снежный покров - Высота снежного покрова, см. При наведении курсора мыши на число - состояние снежного покрова и степень покрытия местности в баллах.